SUOMI NPP 1 37849U 11061A 21056.78810529 .00000008 00000-0 24492-4 0 9997 2 37849 98.7279 357.0088 0000592 92.9902 296.3871 14.19551664483567 DICE-F 1 37851U 11061B 21056.55699347 .00002022 00000-0 10806-3 0 9999 2 37851 101.7465 274.6097 0177045 73.2936 288.7624 15.05065354508980 DICE-Y 1 37852U 11061C 21056.60803848 .00002175 00000-0 11247-3 0 9998 2 37852 101.7257 287.5231 0159414 34.9784 326.1778 15.08198892509512 RAX-2 1 37853U 11061D 21056.56061997 .00001598 00000-0 91125-4 0 9997 2 37853 101.7243 270.2507 0165628 62.7002 299.0966 15.04973106508891 AUBIESAT-1 (AO-71) 1 37854U 11061E 21056.60864522 .00002124 00000-0 11146-3 0 9998 2 37854 101.7103 284.9809 0155815 28.6201 332.3456 15.08196172509624 M-CUBED & EXP-1 PRIME 1 37855U 11061F 21056.58503295 .00001963 00000-0 10194-3 0 9995 2 37855 101.7241 281.9814 0168203 43.3119 318.1175 15.07232207509795